N7WWK-1 Weather Reports


Display with metric or nautical units.
time (UTC)temp
F
wind
direction
speed
MPH
gust
MPH
rain 1hr
in
rain 24hr
in
rain mn
in
humidity
%
barometer
mb
20260901001004 81 78 1.0 3.0 0.00 0.00 0.00 89 1015.2
20260901000219 81 74 1.0 4.0 0.00 0.00 0.00 89 1015.1
20260831235215 82 74 1.0 6.0 0.00 0.00 0.00 88 1015.0
20260831234005 82 77 2.0 6.0 0.00 0.00 0.00 88 1015.0
20260831233004 82 77 2.0 8.0 0.00 0.00 0.00 87 1015.1
20260831232005 83 82 1.0 4.0 0.00 0.00 0.00 86 1015.0
20260831231004 83 75 2.0 7.0 0.00 0.00 0.00 85 1015.2
20260831230215 83 75 1.0 2.0 0.00 0.00 0.00 84 1015.3
20260831225215 83 94 1.0 4.0 0.00 0.00 0.00 84 1015.2
20260831224004 84 83 1.0 6.0 0.00 0.00 0.00 84 1015.2
20260831223005 84 90 1.0 4.0 0.00 0.00 0.00 83 1015.0
20260831222004 84 74 2.0 7.0 0.00 0.00 0.00 83 1015.0
20260831221005 84 81 2.0 9.0 0.00 0.00 0.00 81 1015.1
20260831220005 85 85 2.0 7.0 0.00 0.00 0.00 82 1015.1
20260831215005 85 72 3.0 10.0 0.00 0.00 0.00 82 1015.0
20260831214004 87 92 1.0 4.0 0.00 0.00 0.00 79 1015.2
20260831213004 88 78 2.0 5.0 0.00 0.00 0.00 77 1015.1
20260831212004 87 85 3.0 8.0 0.00 0.00 0.00 79 1015.0
20260831211005 87 78 3.0 11.0 0.00 0.00 0.00 78 1015.0
20260831210005 87 80 3.0 10.0 0.00 0.00 0.00 78 1014.6
20260831205005 87 94 2.0 7.0 0.00 0.00 0.00 79 1014.8
20260831204218 88 73 3.0 11.0 0.00 0.00 0.00 77 1014.9
20260831203005 88 81 3.0 10.0 0.00 0.00 0.00 77 1015.1
20260831202005 88 76 2.0 9.0 0.00 0.00 0.00 78 1015.2
20260831201216 87 81 3.0 8.0 0.00 0.00 0.00 79 1014.8
20260831200005 87 81 4.0 11.0 0.00 0.00 0.00 80 1015.1
20260831195218 87 81 3.0 10.0 0.00 0.00 0.00 79 1015.0
20260831194005 87 81 5.0 11.0 0.00 0.00 0.00 78 1014.9
20260831193005 87 84 3.0 7.0 0.00 0.00 0.00 76 1015.0
20260831192005 86 84 3.0 10.0 0.00 0.00 0.00 81 1014.9
20260831191005 86 84 2.0 8.0 0.00 0.00 0.00 80 1015.3
20260831190005 85 84 2.0 5.0 0.00 0.00 0.00 81 1015.2
20260831185218 84 81 3.0 10.0 0.00 0.00 0.00 80 1015.2
20260831184004 84 80 3.0 8.0 0.00 0.00 0.00 81 1015.3
20260831183005 85 80 3.0 9.0 0.00 0.00 0.00 79 1015.5
20260831182004 85 75 3.0 9.0 0.00 0.00 0.00 78 1015.7
20260831181004 87 86 3.0 14.0 0.00 0.00 0.00 75 1015.7
20260831180005 88 83 4.0 10.0 0.00 0.00 0.00 74 1015.9
20260831175005 89 87 3.0 10.0 0.00 0.00 0.00 73 1015.7
20260831174215 88 81 4.0 9.0 0.00 0.00 0.00 76 1015.8
20260831173005 88 65 3.0 15.0 0.00 0.00 0.00 75 1016.0
20260831172004 91 52 2.0 6.0 0.00 0.00 0.00 66 1016.1
20260831171005 92 22 1.0 4.0 0.00 0.00 0.00 66 1016.1
20260831170005 89 331 1.0 3.0 0.00 0.00 0.00 71 1016.3
20260831165005 89 347 1.0 3.0 0.00 0.00 0.00 69 1016.3
20260831164004 88 9 1.0 2.0 0.00 0.00 0.00 73 1016.6
20260831163004 89 343 1.0 4.0 0.00 0.00 0.00 71 1016.6
20260831162005 90 349 2.0 4.0 0.00 0.00 0.00 71 1016.6
20260831161004 91 28 1.0 3.0 0.00 0.00 0.00 67 1016.7
20260831160005 91 328 1.0 3.0 0.00 0.00 0.00 65 1016.9
20260831155005 90 80 1.0 3.0 0.00 0.00 0.00 66 1017.2
20260831154004 90 114 1.0 3.0 0.00 0.00 0.00 69 1017.2
20260831153005 89 71 1.0 6.0 0.00 0.00 0.00 70 1017.1
20260831152005 89 46 1.0 3.0 0.00 0.00 0.00 71 1017.0
20260831151005 88 342 2.0 4.0 0.00 0.00 0.00 75 1017.0
20260831150215 88 359 1.0 4.0 0.00 0.00 0.00 76 1017.1
20260831145004 89 69 1.0 3.0 0.00 0.00 0.00 75 1016.8
20260831144005 89 97 0.0 3.0 0.00 0.00 0.00 72 1017.1
20260831143004 88 96 0.0 2.0 0.00 0.00 0.00 74 1016.8
20260831142005 85 40 1.0 2.0 0.00 0.00 0.00 80 1016.7
20260831141004 83 68 1.0 2.0 0.00 0.00 0.00 84 1016.4
20260831140005 82 76 1.0 2.0 0.00 0.00 0.00 87 1016.5
20260831135004 82 62 1.0 2.0 0.00 0.00 0.00 86 1016.2
20260831134004 81 1 1.0 2.0 0.00 0.00 0.00 87 1016.5
20260831133005 82 11 1.0 3.0 0.00 0.00 0.00 89 1016.3
20260831132005 82 339 1.0 2.0 0.00 0.00 0.00 90 1016.2
20260831131004 81 341 0.0 2.0 0.00 0.00 0.00 92 1015.9
20260831130216 80 3 1.0 2.0 0.00 0.00 0.00 94 1016.1
20260831125004 79 350 1.0 4.0 0.00 0.00 0.00 97 1016.2
20260831124005 79 6 1.0 3.0 0.00 0.00 0.00 98 1016.1
20260831123005 78 10 1.0 2.0 0.00 0.00 0.00 99 1016.1
20260831122214 78 61 0.0 1.0 0.00 0.00 0.00 99 1016.1
20260831121005 77 0 0.0 0.0 0.00 0.00 0.00 99 1015.8
20260831120005 76 0 0.0 0.0 0.00 0.00 0.00 99 1015.7
20260831115004 76 0 0.0 0.0 0.00 0.00 0.00 99 1015.8
20260831114218 75 0 0.0 0.0 0.00 0.00 0.00 99 1015.5
20260831113004 75 0 0.0 0.0 0.00 0.00 0.00 99 1015.3
20260831112005 75 0 0.0 0.0 0.00 0.00 0.00 99 1015.5
20260831111004 75 0 0.0 0.0 0.00 0.00 0.00 99 1015.4
20260831110005 74 0 0.0 0.0 0.00 0.00 0.00 99 1015.0
20260831105005 75 0 0.0 0.0 0.00 0.00 0.00 99 1015.1
20260831104004 75 0 0.0 0.0 0.00 0.00 0.00 99 1014.9
20260831103005 75 0 0.0 0.0 0.00 0.00 0.00 99 1015.0
20260831102005 75 0 0.0 0.0 0.00 0.00 0.00 99 1014.9
20260831101005 75 0 0.0 0.0 0.00 0.00 0.00 99 1014.9
20260831100005 75 0 0.0 0.0 0.00 0.00 0.00 99 1014.8
20260831095004 75 0 0.0 0.0 0.00 0.00 0.00 99 1015.0
20260831094005 75 0 0.0 0.0 0.00 0.00 0.00 99 1014.8
20260831093005 75 0 0.0 0.0 0.00 0.00 0.00 99 1014.8
20260831092005 75 0 0.0 0.0 0.00 0.00 0.00 99 1014.8
20260831091004 75 0 0.0 0.0 0.00 0.00 0.00 99 1014.6
20260831090004 75 0 0.0 0.0 0.00 0.00 0.00 99 1014.9
20260831085004 75 0 0.0 0.0 0.00 0.00 0.00 99 1015.0
20260831084005 76 0 0.0 0.0 0.00 0.00 0.00 99 1014.9
20260831083005 76 0 0.0 0.0 0.00 0.00 0.00 99 1014.7
20260831082005 76 0 0.0 0.0 0.00 0.00 0.00 99 1014.7
20260831081004 76 0 0.0 0.0 0.00 0.00 0.00 98 1014.8
20260831080005 76 0 0.0 0.0 0.00 0.00 0.00 98 1015.0
20260831075004 76 0 0.0 0.0 0.00 0.00 0.00 98 1014.9
20260831074216 76 0 0.0 0.0 0.00 0.00 0.00 98 1014.9
20260831073217 76 0 0.0 0.0 0.00 0.00 0.00 98 1014.8
20260831072004 77 74 0.0 1.0 0.00 0.00 0.00 98 1015.1
20260831071005 77 0 0.0 0.0 0.00 0.00 0.00 98 1015.2
20260831070005 77 0 0.0 0.0 0.00 0.00 0.00 98 1015.1
20260831065005 77 0 0.0 0.0 0.00 0.00 0.00 97 1015.2
20260831064005 77 0 0.0 0.0 0.00 0.00 0.00 97 1015.3
20260831063005 78 0 0.0 0.0 0.00 0.00 0.00 97 1015.2
20260831062005 78 0 0.0 0.0 0.00 0.00 0.00 97 1015.3
20260831061004 78 74 0.0 1.0 0.00 0.00 0.00 97 1015.6
20260831060215 78 0 0.0 0.0 0.00 0.00 0.00 97 1015.5
20260831055216 78 74 0.0 0.0 0.00 0.00 0.00 97 1015.6
20260831054217 78 76 0.0 1.0 0.00 0.00 0.00 97 1015.6
20260831053005 78 75 0.0 1.0 0.00 0.00 0.00 97 1015.5
20260831052004 78 0 0.0 0.0 0.00 0.00 0.00 97 1015.5
20260831051215 78 0 0.0 0.0 0.00 0.00 0.00 97 1015.5
20260831050005 78 0 0.0 0.0 0.00 0.00 0.00 97 1015.4
20260831045217 78 0 0.0 0.0 0.00 0.00 0.00 97 1015.4
20260831044005 78 0 0.0 0.0 0.00 0.00 0.00 96 1015.4
20260831043214 78 0 0.0 0.0 0.00 0.00 0.00 96 1015.7
20260831042005 79 76 0.0 1.0 0.00 0.00 0.00 96 1015.6
20260831040029 79 73 0.0 1.0 0.00 0.00 0.00 96 1015.6
20260831035217 78 73 0.0 1.0 0.00 0.00 0.00 95 1015.7
20260831034004 78 0 0.0 0.0 0.00 0.00 0.00 95 1015.7
20260831033005 79 75 0.0 1.0 0.00 0.00 0.00 95 1015.9
20260831032004 79 78 0.0 2.0 0.00 0.00 0.00 94 1016.2
20260831031005 79 80 0.0 1.0 0.00 0.00 0.00 94 1015.9
20260831030005 79 74 1.0 2.0 0.00 0.00 0.00 94 1016.0
20260831025005 79 71 0.0 2.0 0.00 0.00 0.00 94 1016.0
20260831024004 79 79 0.0 1.0 0.00 0.00 0.00 93 1016.2
20260831023004 79 74 1.0 3.0 0.00 0.00 0.00 93 1015.9
20260831022005 79 73 1.0 3.0 0.00 0.00 0.00 93 1016.1
20260831021005 79 78 0.0 3.0 0.00 0.00 0.00 92 1016.2
20260831020005 80 74 0.0 2.0 0.00 0.00 0.00 92 1016.2
20260831015219 80 67 1.0 3.0 0.00 0.00 0.00 91 1016.2
20260831014004 80 73 1.0 4.0 0.00 0.00 0.00 91 1016.2
20260831013215 80 76 1.0 3.0 0.00 0.00 0.00 90 1016.2
20260831012005 80 76 1.0 4.0 0.00 0.00 0.00 89 1016.4
20260831011005 81 77 1.0 3.0 0.00 0.00 0.00 89 1016.4
20260831010005 81 76 1.0 3.0 0.00 0.00 0.00 89 1016.5
20260831005214 81 80 0.0 3.0 0.00 0.00 0.00 89 1016.3
20260831004005 81 70 1.0 2.0 0.00 0.00 0.00 89 1016.0
20260831003005 81 74 1.0 6.0 0.00 0.00 0.00 89 1015.6
20260831002005 81 77 1.0 3.0 0.00 0.00 0.00 89 1015.7